QPF
0.00 0.00 0.00 0.00 0.00 0.00 0.00 0.00 0.00 0.00 0.00 0.00 0.00 0.00 0.00 0.00 0.00 0.00 0.00 0.00 0.00 0.00 0.00 0.00 0.00 0.00 0.00 0.00 0.00 0.00 0.00 0.00 0.00 0.00 0.00 0.00 0.00 0.00 0.00 0.00 0.00 0.01 0.01 0.01
0.00 0.00 0.00 0.00 0.00 0.00 0.00 0.00 0.00 0.00 0.00 0.00 0.00 0.00 0.00 0.00 0.00 0.00 0.00 0.00 0.00 0.00 0.00 0.00 0.00 0.00 0.00 0.00 0.00 0.00 0.00 0.00 0.00 0.00 0.00 0.00 0.00 0.00 0.00 0.00 0.00 0.00 0.00 0.01
0.00 0.00 0.00 0.00 0.00 0.00 0.00 0.00 0.00 0.00 0.00 0.00 0.00 0.00 0.00 0.00 0.00 0.00 0.00 0.00 0.00 0.00 0.00 0.00 0.00 0.00 0.00 0.00 0.00 0.00 0.00 0.00 0.00 0.00 0.00 0.00 0.00 0.00 0.00 0.00 0.00 0.00 0.00 0.00
0.00 0.00 0.00 0.00 0.00 0.00 0.00 0.00 0.00 0.00 0.00 0.00 0.00 0.00 0.00 0.00 0.00 0.00 0.00 0.00 0.00 0.00 0.00 0.00 0.00 0.00 0.00 0.00 0.00 0.00 0.00 0.00 0.00 0.00 0.00 0.00 0.00 0.00 0.00 0.00 0.00 0.00 0.00 0.00
0.00 0.00 0.00 0.00 0.00 0.00 0.00 0.00 0.00 0.00 0.00 0.00 0.00 0.00 0.00 0.00 0.00 0.00 0.00 0.00 0.00 0.00 0.00 0.00 0.00 0.00 0.00 0.00 0.00 0.00 0.00 0.00 0.00 0.00 0.00 0.00 0.00 0.00 0.00 0.00 0.00 0.00 0.00 0.00
0.00 0.00 0.00 0.00 0.00 0.00 0.00 0.00 0.00 0.00 0.00 0.00 0.00 0.00 0.00 0.00 0.00 0.00 0.00 0.00 0.00 0.00 0.00 0.00 0.00 0.00 0.00 0.00 0.00 0.00 0.00 0.00 0.00 0.00 0.00 0.00 0.00 0.00 0.00 0.00 0.00 0.00 0.00 0.00
0.00 0.00 0.00 0.00 0.00 0.00 0.00 0.00 0.00 0.00 0.00 0.00 0.00 0.00 0.00 0.00 0.00 0.00 0.00 0.00 0.00 0.00 0.00 0.00 0.00 0.00 0.00 0.00 0.00 0.00 0.00 0.00 0.00 0.00 0.00 0.00 0.00 0.00 0.00 0.00 0.00 0.00 0.00 0.00
0.00 0.00 0.00 0.00 0.00 0.00 0.00 0.00 0.00 0.00 0.00 0.00 0.00 0.00 0.00 0.00 0.00 0.00 0.00 0.00 0.00 0.00 0.00 0.00 0.00 0.00 0.00 0.00 0.00 0.00 0.00 0.00 0.00 0.00 0.00 0.00 0.00 0.00 0.00 0.00 0.00 0.00 0.00 0.00
0.00 0.00 0.00 0.00 0.00 0.00 0.00 0.00 0.00 0.00 0.00 0.00 0.00 0.00 0.00 0.00 0.00 0.00 0.00 0.00 0.00 0.00 0.00 0.00 0.00 0.00 0.00 0.00 0.00 0.00 0.00 0.00 0.00 0.00 0.00 0.00 0.00 0.00 0.00 0.00 0.00 0.00 0.00 0.00
0.00 0.00 0.00 0.00 0.00 0.00 0.00 0.00 0.00 0.00 0.00 0.00 0.00 0.00 0.00 0.00 0.00 0.00 0.00 0.00 0.00 0.00 0.00 0.00 0.00 0.00 0.00 0.00 0.00 0.00 0.00 0.00 0.00 0.00 0.00 0.00 0.00 0.00 0.00 0.00 0.00 0.00 0.00 0.00
0.00 0.00 0.00 0.00 0.00 0.00 0.00 0.00 0.00 0.00 0.00 0.00 0.00 0.00 0.00 0.00 0.00 0.00 0.00 0.00 0.00 0.00 0.00 0.00 0.00 0.00 0.00 0.00 0.00 0.00 0.00 0.00 0.00 0.00 0.00 0.00 0.00 0.00 0.00 0.00 0.00 0.00 0.00 0.00
0.00 0.00 0.00 0.00 0.00 0.00 0.00 0.00 0.00 0.00 0.00 0.00 0.00 0.00 0.00 0.00 0.00 0.00 0.00 0.00 0.00 0.00 0.00 0.00 0.00 0.00 0.00 0.00 0.00 0.00 0.00 0.00 0.00 0.00 0.00 0.00 0.00 0.00 0.00 0.00 0.00 0.00 0.00 0.00
0.00 0.01 0.00 0.00 0.00 0.00 0.00 0.00 0.00 0.00 0.00 0.00 0.00 0.00 0.00 0.00 0.00 0.00 0.00 0.00 0.00 0.00 0.00 0.00 0.00 0.00 0.00 0.00 0.00 0.00 0.00 0.00 0.00 0.00 0.00 0.00 0.00 0.00 0.00 0.00 0.00 0.00 0.00 0.00
0.04 0.04 0.02 0.01 0.00 0.00 0.00 0.00 0.00 0.00 0.00 0.00 0.00 0.00 0.00 0.00 0.00 0.00 0.00 0.00 0.00 0.00 0.00 0.00 0.00 0.00 0.00 0.00 0.00 0.00 0.00 0.00 0.00 0.00 0.00 0.00 0.00 0.00 0.00 0.00 0.00 0.00 0.00 0.00
0.07 0.08 0.03 0.01 0.00 0.01 0.01 0.00 0.00 0.00 0.00 0.00 0.00 0.00 0.00 0.00 0.00 0.00 0.00 0.00 0.00 0.00 0.00 0.00 0.00 0.00 0.00 0.00 0.00 0.00 0.00 0.00 0.00 0.00 0.00 0.00 0.00 0.00 0.00 0.00 0.00 0.00 0.00 0.00
0.08 0.09 0.05 0.02 0.00 0.01 0.02 0.02 0.01 0.00 0.00 0.00 0.00 0.00 0.00 0.00 0.00 0.00 0.00 0.00 0.00 0.00 0.00 0.00 0.00 0.00 0.00 0.00 0.00 0.00 0.00 0.00 0.00 0.00 0.00 0.00 0.00 0.00 0.00 0.00 0.00 0.00 0.00 0.00
0.10 0.11 0.11 0.06 0.01 0.04 0.06 0.02 0.00 0.00 0.00 0.00 0.00 0.00 0.00 0.00 0.00 0.00 0.00 0.00 0.00 0.00 0.00 0.00 0.00 0.00 0.00 0.00 0.00 0.00 0.00 0.00 0.00 0.00 0.00 0.00 0.00 0.00 0.00 0.00 0.00 0.00 0.00 0.00
0.07 0.08 0.14 0.12 0.06 0.09 0.03 0.00 0.00 0.00 0.00 0.00 0.00 0.00 0.00 0.00 0.00 0.00 0.00 0.00 0.00 0.00 0.00 0.00 0.00 0.00 0.00 0.00 0.00 0.00 0.00 0.00 0.00 0.00 0.00 0.00 0.00 0.00 0.00 0.00 0.00 0.00 0.00 0.00
0.02 0.04 0.11 0.13 0.09 0.05 0.00 0.00 0.00 0.00 0.00 0.00 0.00 0.00 0.00 0.00 0.00 0.00 0.00 0.00 0.00 0.00 0.00 0.00 0.00 0.00 0.00 0.00 0.00 0.00 0.00 0.00 0.00 0.00 0.00 0.00 0.00 0.00 0.00 0.00 0.00 0.00 0.00 0.00
0.00 0.02 0.07 0.10 0.09 0.04 0.00 0.00 0.00 0.00 0.00 0.00 0.00 0.00 0.00 0.00 0.00 0.00 0.00 0.00 0.00 0.00 0.00 0.00 0.00 0.00 0.00 0.00 0.00 0.00 0.00 0.00 0.00 0.00 0.00 0.00 0.00 0.00 0.00 0.00 0.00 0.00 0.00 0.00
0.01 0.02 0.05 0.06 0.06 0.03 0.00 0.00 0.00 0.01 0.00 0.00 0.00 0.00 0.00 0.00 0.00 0.00 0.00 0.00 0.00 0.00 0.00 0.00 0.00 0.00 0.00 0.00 0.00 0.00 0.00 0.00 0.00 0.00 0.00 0.00 0.00 0.00 0.00 0.00 0.00 0.00 0.00 0.00
0.02 0.04 0.04 0.04 0.05 0.03 0.00 0.00 0.00 0.01 0.00 0.00 0.00 0.00 0.00 0.00 0.00 0.00 0.00 0.00 0.00 0.00 0.00 0.00 0.00 0.00 0.00 0.00 0.00 0.00 0.00 0.00 0.00 0.00 0.00 0.00 0.00 0.00 0.00 0.00 0.00 0.00 0.00 0.00
0.00 0.01 0.02 0.03 0.03 0.01 0.00 0.00 0.00 0.00 0.01 0.00 0.00 0.00 0.00 0.00 0.00 0.00 0.00 0.00 0.00 0.00 0.00 0.00 0.00 0.00 0.00 0.00 0.00 0.00 0.00 0.00 0.00 0.00 0.00 0.00 0.00 0.00 0.00 0.00 0.00 0.00 0.00 0.01
0.00 0.00 0.00 0.01 0.00 0.00 0.00 0.00 0.00 0.00 0.00 0.00 0.00 0.00 0.00 0.00 0.00 0.00 0.00 0.00 0.00 0.00 0.00 0.00 0.00 0.00 0.00 0.00 0.00 0.00 0.00 0.00 0.00 0.00 0.00 0.00 0.00 0.00 0.00 0.00 0.01 0.01 0.01 0.01
0.00 0.00 0.00 0.00 0.00 0.00 0.00 0.00 0.00 0.00 0.00 0.00 0.00 0.00 0.00 0.00 0.00 0.00 0.00 0.00 0.00 0.00 0.00 0.00 0.00 0.00 0.00 0.00 0.00 0.00 0.00 0.00 0.00 0.00 0.00 0.00 0.00 0.01 0.01 0.01 0.01 0.01 0.01 0.01
0.00 0.00 0.00 0.00 0.00 0.01 0.00 0.00 0.00 0.00 0.00 0.00 0.00 0.00 0.00 0.00 0.00 0.00 0.01 0.01 0.00 0.00 0.00 0.00 0.00 0.01 0.01 0.01 0.01 0.01 0.01 0.01 0.01 0.00 0.01 0.01 0.01 0.01 0.01 0.01 0.01 0.01 0.01 0.01
MSLP
1015.67 1015.90 1016.12 1016.34 1016.59 1016.89 1017.23 1017.58 1017.91 1018.14 1018.24 1018.17 1017.89 1017.44 1016.83 1016.14 1015.42 1014.74 1014.16 1013.71 1013.41 1013.26 1013.25 1013.35 1013.54 1013.82 1014.18 1014.61 1015.11 1015.67 1016.29 1016.93 1017.56 1018.16 1018.69 1019.13 1019.47 1019.73 1019.92 1020.08 1020.24 1020.45 1020.74 1021.12
1016.17 1016.34 1016.48 1016.63 1016.84 1017.12 1017.47 1017.85 1018.22 1018.49 1018.61 1018.52 1018.20 1017.65 1016.92 1016.08 1015.20 1014.38 1013.68 1013.14 1012.79 1012.61 1012.60 1012.71 1012.91 1013.19 1013.53 1013.93 1014.40 1014.94 1015.55 1016.21 1016.88 1017.54 1018.16 1018.68 1019.10 1019.41 1019.63 1019.79 1019.93 1020.09 1020.33 1020.66
1016.55 1016.66 1016.75 1016.87 1017.07 1017.35 1017.73 1018.15 1018.55 1018.85 1018.97 1018.84 1018.44 1017.78 1016.92 1015.93 1014.91 1013.96 1013.17 1012.57 1012.20 1012.04 1012.05 1012.19 1012.42 1012.70 1013.03 1013.40 1013.83 1014.32 1014.89 1015.52 1016.20 1016.89 1017.55 1018.13 1018.62 1018.98 1019.24 1019.41 1019.56 1019.71 1019.92 1020.22
1016.73 1016.80 1016.87 1016.99 1017.21 1017.53 1017.96 1018.44 1018.88 1019.19 1019.28 1019.10 1018.61 1017.83 1016.82 1015.69 1014.54 1013.50 1012.64 1012.02 1011.66 1011.53 1011.60 1011.80 1012.07 1012.38 1012.71 1013.05 1013.42 1013.84 1014.35 1014.93 1015.57 1016.24 1016.90 1017.51 1018.02 1018.42 1018.72 1018.92 1019.08 1019.24 1019.45 1019.75
1016.66 1016.72 1016.80 1016.96 1017.24 1017.64 1018.14 1018.68 1019.16 1019.48 1019.54 1019.29 1018.69 1017.79 1016.65 1015.39 1014.14 1013.02 1012.13 1011.51 1011.18 1011.12 1011.26 1011.53 1011.87 1012.21 1012.55 1012.86 1013.19 1013.55 1013.97 1014.47 1015.04 1015.65 1016.27 1016.86 1017.37 1017.78 1018.08 1018.31 1018.49 1018.68 1018.90 1019.21
1016.37 1016.44 1016.56 1016.79 1017.16 1017.66 1018.26 1018.87 1019.39 1019.71 1019.73 1019.40 1018.71 1017.69 1016.44 1015.07 1013.75 1012.58 1011.67 1011.07 1010.80 1010.81 1011.03 1011.38 1011.78 1012.18 1012.53 1012.84 1013.12 1013.42 1013.77 1014.18 1014.65 1015.18 1015.72 1016.25 1016.71 1017.09 1017.39 1017.63 1017.83 1018.04 1018.29 1018.61
1015.92 1016.02 1016.21 1016.53 1017.01 1017.62 1018.32 1019.00 1019.55 1019.86 1019.84 1019.44 1018.66 1017.55 1016.21 1014.78 1013.41 1012.22 1011.33 1010.77 1010.54 1010.62 1010.91 1011.33 1011.79 1012.22 1012.60 1012.91 1013.17 1013.43 1013.71 1014.03 1014.42 1014.85 1015.29 1015.73 1016.12 1016.45 1016.72 1016.94 1017.14 1017.36 1017.64 1017.98
1015.42 1015.56 1015.83 1016.26 1016.85 1017.57 1018.34 1019.06 1019.62 1019.91 1019.85 1019.38 1018.54 1017.37 1015.99 1014.54 1013.16 1012.00 1011.13 1010.62 1010.44 1010.56 1010.90 1011.36 1011.85 1012.31 1012.70 1013.01 1013.27 1013.49 1013.72 1013.98 1014.29 1014.63 1014.98 1015.32 1015.63 1015.89 1016.10 1016.29 1016.48 1016.71 1017.00 1017.36
1014.98 1015.18 1015.54 1016.06 1016.74 1017.52 1018.33 1019.07 1019.61 1019.85 1019.73 1019.21 1018.33 1017.14 1015.77 1014.35 1013.02 1011.91 1011.11 1010.64 1010.50 1010.64 1010.99 1011.45 1011.93 1012.39 1012.77 1013.08 1013.32 1013.53 1013.73 1013.95 1014.20 1014.47 1014.74 1015.00 1015.23 1015.42 1015.58 1015.73 1015.89 1016.11 1016.41 1016.78
1014.69 1014.96 1015.38 1015.97 1016.70 1017.50 1018.30 1018.99 1019.46 1019.63 1019.45 1018.89 1017.99 1016.83 1015.52 1014.18 1012.95 1011.94 1011.22 1010.80 1010.69 1010.83 1011.15 1011.56 1012.00 1012.40 1012.75 1013.03 1013.25 1013.45 1013.64 1013.84 1014.06 1014.28 1014.50 1014.70 1014.87 1015.00 1015.11 1015.23 1015.37 1015.58 1015.87 1016.24
1014.57 1014.91 1015.40 1016.02 1016.74 1017.51 1018.23 1018.81 1019.17 1019.23 1018.97 1018.37 1017.48 1016.39 1015.18 1013.99 1012.91 1012.03 1011.41 1011.06 1010.96 1011.07 1011.33 1011.66 1012.00 1012.32 1012.59 1012.81 1013.00 1013.18 1013.36 1013.56 1013.77 1013.98 1014.17 1014.34 1014.48 1014.58 1014.67 1014.76 1014.90 1015.09 1015.37 1015.74
1014.62 1015.03 1015.55 1016.16 1016.83 1017.49 1018.08 1018.51 1018.71 1018.64 1018.28 1017.65 1016.80 1015.80 1014.74 1013.72 1012.82 1012.10 1011.60 1011.32 1011.24 1011.31 1011.48 1011.69 1011.91 1012.11 1012.28 1012.43 1012.57 1012.72 1012.89 1013.08 1013.29 1013.50 1013.69 1013.86 1013.99 1014.09 1014.18 1014.28 1014.42 1014.62 1014.90 1015.26
1014.80 1015.25 1015.78 1016.34 1016.91 1017.43 1017.83 1018.06 1018.08 1017.86 1017.41 1016.75 1015.95 1015.06 1014.17 1013.35 1012.64 1012.10 1011.73 1011.52 1011.45 1011.47 1011.55 1011.64 1011.73 1011.80 1011.85 1011.91 1011.98 1012.09 1012.23 1012.42 1012.63 1012.84 1013.05 1013.23 1013.38 1013.50 1013.62 1013.75 1013.91 1014.14 1014.43 1014.79
1015.07 1015.54 1016.03 1016.51 1016.95 1017.28 1017.48 1017.50 1017.33 1016.96 1016.42 1015.76 1015.01 1014.25 1013.52 1012.89 1012.38 1012.00 1011.75 1011.61 1011.55 1011.53 1011.52 1011.49 1011.46 1011.40 1011.35 1011.32 1011.33 1011.38 1011.50 1011.67 1011.87 1012.08 1012.30 1012.50 1012.68 1012.84 1013.00 1013.17 1013.39 1013.65 1013.97 1014.34
1015.37 1015.83 1016.26 1016.64 1016.91 1017.06 1017.06 1016.88 1016.53 1016.04 1015.44 1014.78 1014.09 1013.45 1012.88 1012.42 1012.07 1011.83 1011.67 1011.58 1011.52 1011.46 1011.38 1011.27 1011.13 1010.99 1010.86 1010.76 1010.71 1010.73 1010.81 1010.95 1011.13 1011.33 1011.54 1011.75 1011.96 1012.16 1012.37 1012.61 1012.88 1013.19 1013.55 1013.94
1015.70 1016.11 1016.45 1016.70 1016.82 1016.79 1016.61 1016.27 1015.80 1015.22 1014.59 1013.95 1013.34 1012.80 1012.35 1012.02 1011.79 1011.64 1011.54 1011.47 1011.40 1011.30 1011.17 1011.01 1010.81 1010.62 1010.45 1010.32 1010.24 1010.23 1010.28 1010.39 1010.54 1010.72 1010.91 1011.12 1011.33 1011.57 1011.82 1012.11 1012.44 1012.81 1013.21 1013.63
1016.06 1016.37 1016.60 1016.71 1016.68 1016.51 1016.20 1015.75 1015.21 1014.60 1013.98 1013.39 1012.85 1012.40 1012.05 1011.80 1011.63 1011.52 1011.43 1011.35 1011.25 1011.12 1010.95 1010.76 1010.56 1010.37 1010.20 1010.08 1010.01 1009.99 1010.03 1010.11 1010.22 1010.36 1010.52 1010.70 1010.91 1011.15 1011.44 1011.77 1012.15 1012.57 1013.01 1013.45
1016.42 1016.61 1016.71 1016.68 1016.53 1016.25 1015.86 1015.38 1014.82 1014.25 1013.69 1013.17 1012.71 1012.34 1012.05 1011.83 1011.67 1011.54 1011.42 1011.29 1011.14 1010.97 1010.79 1010.60 1010.43 1010.27 1010.16 1010.08 1010.05 1010.05 1010.09 1010.14 1010.22 1010.31 1010.42 1010.56 1010.74 1010.98 1011.28 1011.64 1012.05 1012.50 1012.97 1013.43
1016.76 1016.81 1016.76 1016.61 1016.36 1016.02 1015.61 1015.14 1014.64 1014.15 1013.68 1013.26 1012.90 1012.59 1012.34 1012.12 1011.93 1011.74 1011.55 1011.35 1011.14 1010.93 1010.74 1010.57 1010.44 1010.36 1010.31 1010.31 1010.34 1010.38 1010.42 1010.46 1010.50 1010.54 1010.60 1010.69 1010.83 1011.05 1011.34 1011.70 1012.13 1012.59 1013.07 1013.53
1017.00 1016.90 1016.72 1016.46 1016.14 1015.78 1015.39 1014.98 1014.59 1014.21 1013.88 1013.57 1013.31 1013.06 1012.83 1012.60 1012.36 1012.09 1011.82 1011.54 1011.27 1011.02 1010.82 1010.69 1010.61 1010.60 1010.64 1010.71 1010.80 1010.88 1010.93 1010.96 1010.96 1010.95 1010.96 1011.00 1011.10 1011.28 1011.56 1011.91 1012.33 1012.79 1013.26 1013.71
1017.08 1016.84 1016.54 1016.20 1015.84 1015.48 1015.14 1014.83 1014.55 1014.32 1014.12 1013.94 1013.78 1013.60 1013.39 1013.15 1012.86 1012.53 1012.18 1011.84 1011.51 1011.24 1011.05 1010.94 1010.92 1010.97 1011.08 1011.21 1011.34 1011.44 1011.49 1011.50 1011.47 1011.42 1011.37 1011.37 1011.44 1011.59 1011.85 1012.19 1012.60 1013.04 1013.49 1013.91
1016.94 1016.59 1016.20 1015.80 1015.43 1015.09 1014.81 1014.59 1014.44 1014.34 1014.27 1014.21 1014.14 1014.03 1013.85 1013.61 1013.31 1012.95 1012.57 1012.19 1011.85 1011.58 1011.40 1011.31 1011.33 1011.42 1011.56 1011.72 1011.86 1011.96 1011.99 1011.97 1011.90 1011.81 1011.73 1011.70 1011.74 1011.88 1012.13 1012.46 1012.85 1013.27 1013.69 1014.08
1016.57 1016.14 1015.70 1015.28 1014.91 1014.61 1014.39 1014.25 1014.19 1014.19 1014.22 1014.26 1014.27 1014.22 1014.09 1013.88 1013.60 1013.26 1012.90 1012.54 1012.22 1011.98 1011.83 1011.78 1011.82 1011.92 1012.06 1012.20 1012.31 1012.37 1012.35 1012.28 1012.17 1012.05 1011.95 1011.91 1011.95 1012.10 1012.34 1012.68 1013.06 1013.47 1013.86 1014.20
1016.02 1015.57 1015.13 1014.72 1014.38 1014.11 1013.93 1013.84 1013.83 1013.89 1013.97 1014.06 1014.11 1014.11 1014.04 1013.90 1013.68 1013.41 1013.12 1012.84 1012.60 1012.42 1012.33 1012.31 1012.36 1012.45 1012.55 1012.63 1012.68 1012.66 1012.57 1012.44 1012.29 1012.14 1012.03 1012.00 1012.07 1012.24 1012.51 1012.86 1013.25 1013.65 1014.02 1014.32
1015.44 1015.04 1014.64 1014.27 1013.96 1013.72 1013.56 1013.48 1013.47 1013.51 1013.59 1013.67 1013.74 1013.76 1013.74 1013.67 1013.54 1013.39 1013.23 1013.07 1012.95 1012.88 1012.86 1012.89 1012.94 1013.00 1013.04 1013.05 1012.99 1012.88 1012.71 1012.51 1012.31 1012.15 1012.05 1012.05 1012.16 1012.37 1012.69 1013.07 1013.48 1013.88 1014.23 1014.51
1015.03 1014.73 1014.42 1014.13 1013.87 1013.65 1013.47 1013.35 1013.28 1013.25 1013.25 1013.26 1013.28 1013.29 1013.30 1013.29 1013.27 1013.26 1013.25 1013.26 1013.29 1013.35 1013.42 1013.50 1013.56 1013.59 1013.56 1013.48 1013.32 1013.10 1012.85 1012.59 1012.36 1012.19 1012.12 1012.17 1012.33 1012.62 1012.99 1013.41 1013.85 1014.26 1014.61 1014.87
Thickness
5669 5663 5659 5669 5676 5681 5678 5678 5683 5687 5684 5686 5683 5691 5706 5719 5721 5722 5725 5730 5734 5738 5745 5747 5745 5741 5735 5730 5725 5720 5715 5709 5702 5696 5691 5686 5683 5680 5676 5673 5669 5664 5660 5654
5651 5651 5668 5679 5678 5675 5671 5666 5670 5678 5677 5676 5676 5686 5705 5716 5722 5727 5730 5733 5737 5740 5743 5746 5746 5743 5737 5731 5726 5721 5717 5711 5705 5700 5694 5688 5683 5679 5675 5670 5666 5662 5658 5653
5646 5657 5668 5664 5659 5659 5659 5657 5661 5665 5671 5671 5665 5675 5700 5719 5729 5733 5736 5738 5740 5741 5742 5744 5744 5742 5738 5732 5727 5722 5717 5712 5706 5699 5692 5685 5679 5675 5671 5668 5664 5660 5655 5651
5641 5651 5652 5651 5651 5651 5646 5661 5661 5657 5649 5650 5663 5650 5694 5716 5722 5727 5730 5731 5734 5739 5741 5742 5742 5740 5736 5732 5727 5721 5715 5710 5705 5698 5692 5686 5681 5677 5674 5669 5663 5657 5652 5647
5636 5640 5639 5638 5646 5648 5644 5648 5651 5648 5641 5637 5651 5641 5671 5706 5707 5719 5727 5731 5735 5739 5741 5741 5741 5738 5736 5730 5724 5718 5712 5707 5702 5697 5691 5684 5679 5675 5669 5664 5659 5653 5648 5644
5626 5633 5636 5638 5642 5644 5634 5634 5633 5631 5626 5614 5640 5636 5657 5690 5706 5719 5728 5733 5733 5733 5734 5734 5734 5732 5728 5723 5718 5713 5708 5703 5698 5693 5687 5682 5676 5669 5664 5660 5655 5650 5644 5639
5608 5613 5620 5625 5621 5624 5625 5617 5601 5600 5595 5610 5644 5644 5664 5700 5717 5721 5723 5724 5723 5723 5721 5722 5722 5719 5717 5714 5709 5705 5701 5697 5692 5688 5683 5678 5672 5666 5661 5657 5652 5646 5640 5634
5597 5600 5607 5612 5616 5609 5612 5617 5594 5588 5593 5613 5631 5630 5665 5698 5706 5710 5712 5713 5714 5715 5713 5713 5713 5711 5708 5705 5701 5697 5693 5689 5686 5682 5678 5673 5668 5662 5658 5653 5649 5644 5638 5632
5606 5606 5614 5613 5619 5615 5606 5608 5621 5603 5596 5589 5609 5645 5675 5684 5691 5696 5698 5701 5703 5705 5707 5705 5704 5703 5700 5696 5692 5688 5685 5681 5678 5674 5670 5665 5662 5657 5652 5648 5644 5639 5633 5627
5605 5597 5592 5595 5601 5605 5609 5613 5595 5585 5578 5577 5605 5630 5647 5664 5669 5677 5682 5688 5693 5696 5694 5695 5693 5691 5689 5686 5682 5679 5676 5672 5668 5665 5661 5658 5654 5650 5646 5640 5636 5632 5627 5621
5594 5582 5566 5573 5581 5592 5592 5597 5597 5589 5586 5576 5581 5620 5672 5674 5669 5668 5671 5675 5676 5678 5678 5678 5678 5677 5675 5672 5669 5667 5664 5661 5658 5655 5653 5649 5646 5642 5638 5634 5630 5625 5619 5613
5582 5575 5565 5570 5583 5592 5592 5593 5590 5574 5575 5587 5583 5619 5672 5673 5666 5662 5660 5662 5662 5662 5662 5662 5662 5661 5659 5657 5655 5654 5652 5650 5649 5646 5643 5641 5637 5634 5630 5627 5623 5617 5612 5606
5566 5556 5546 5553 5560 5568 5574 5584 5586 5584 5574 5568 5570 5611 5657 5657 5652 5650 5649 5648 5647 5648 5648 5647 5647 5646 5646 5646 5644 5643 5641 5641 5639 5637 5634 5632 5629 5626 5623 5620 5615 5609 5604 5598
5550 5544 5547 5554 5561 5562 5562 5568 5573 5570 5561 5565 5580 5611 5639 5638 5634 5634 5634 5634 5634 5635 5635 5635 5634 5635 5636 5636 5636 5634 5633 5632 5630 5627 5624 5622 5621 5619 5615 5611 5606 5601 5595 5589
5531 5526 5535 5546 5554 5550 5547 5550 5555 5558 5565 5564 5581 5595 5628 5627 5620 5619 5620 5621 5622 5622 5622 5623 5623 5623 5624 5624 5624 5624 5624 5622 5620 5617 5614 5613 5611 5608 5604 5600 5595 5591 5585 5580
5517 5513 5517 5522 5534 5534 5530 5537 5543 5547 5554 5559 5567 5584 5618 5613 5608 5607 5607 5607 5606 5608 5610 5612 5612 5613 5613 5613 5614 5613 5613 5612 5609 5606 5604 5602 5598 5594 5591 5587 5583 5578 5574 5568
5501 5498 5500 5509 5515 5508 5515 5538 5540 5540 5548 5549 5552 5577 5592 5589 5592 5592 5592 5591 5592 5596 5599 5601 5602 5603 5603 5603 5603 5603 5602 5599 5594 5591 5589 5585 5582 5580 5577 5574 5570 5566 5560 5555
5487 5480 5481 5488 5487 5494 5528 5552 5546 5542 5546 5546 5548 5560 5569 5571 5577 5581 5582 5578 5581 5584 5587 5589 5589 5590 5590 5588 5587 5587 5584 5580 5577 5575 5572 5569 5567 5564 5562 5558 5555 5551 5545 5540
5480 5472 5468 5470 5471 5482 5516 5539 5539 5530 5533 5540 5539 5544 5549 5554 5557 5568 5568 5563 5563 5565 5566 5567 5566 5567 5568 5568 5566 5563 5562 5560 5559 5558 5556 5553 5550 5548 5545 5541 5538 5534 5528 5523
5471 5467 5456 5454 5454 5458 5507 5530 5529 5520 5507 5514 5515 5515 5519 5525 5523 5541 5542 5541 5544 5545 5543 5542 5541 5543 5545 5544 5541 5539 5539 5538 5538 5537 5537 5535 5533 5531 5528 5524 5520 5515 5510 5505
5449 5445 5445 5446 5441 5451 5498 5510 5509 5486 5486 5485 5489 5491 5493 5495 5498 5508 5516 5520 5520 5521 5520 5519 5519 5520 5520 5517 5516 5516 5516 5516 5515 5515 5515 5513 5512 5510 5507 5503 5499 5495 5489 5483
5440 5435 5435 5437 5431 5445 5485 5485 5476 5464 5463 5468 5470 5470 5470 5473 5479 5486 5493 5498 5499 5498 5498 5496 5494 5495 5494 5492 5492 5494 5493 5492 5492 5492 5491 5489 5488 5486 5483 5480 5476 5471 5466 5460
5427 5432 5431 5436 5440 5451 5459 5457 5452 5447 5445 5447 5449 5449 5449 5451 5457 5463 5469 5475 5477 5477 5474 5472 5469 5470 5469 5467 5468 5470 5470 5470 5469 5469 5467 5466 5464 5462 5459 5456 5452 5447 5443 5437
5411 5417 5416 5413 5425 5430 5431 5435 5434 5431 5428 5429 5430 5430 5430 5430 5436 5441 5445 5449 5452 5454 5451 5449 5447 5447 5447 5445 5444 5444 5446 5447 5447 5446 5445 5444 5441 5439 5436 5433 5430 5426 5421 5416
5392 5394 5391 5390 5400 5402 5408 5413 5414 5412 5411 5411 5412 5412 5412 5412 5415 5418 5422 5426 5427 5429 5428 5426 5425 5425 5423 5422 5420 5420 5423 5426 5426 5426 5424 5423 5420 5417 5413 5410 5407 5404 5401 5398
5380 5378 5370 5371 5384 5378 5386 5395 5394 5391 5392 5392 5391 5394 5397 5394 5394 5397 5400 5403 5403 5403 5402 5401 5400 5399 5398 5397 5397 5397 5401 5405 5407 5405 5403 5402 5399 5395 5392 5388 5385 5383 5380 5377